Location: Cantaing
(50.1487°N, 3.1675°E)
Time: 23:16:33
(UTC+00:00)

Cosmos 2082 Rocket - Pass Details

Date: 14 April 2026
Orbit: 831 x 853 km, 71.0° (Epoch: 19 May)

Event Time Altitude Azimuth Distance (km) Brightness Sun altitude
Exits shadow 01:14:52 19° 120° (ESE) 1,939 4.0 -27.5°
Maximum altitude 01:16:16 20° 100° (E) 1,856 4.1 -27.4°
Drops below altitude 10° 01:20:20 10° 55° (NE) 2,490 5.4 -27.2°
Sets 01:23:22 0° 39° (NE) 3,432 6.6 -26.9°
